Location: Cazarilh
(42.9578°N, 0.5819°E)
Time: 05:42:03
(UTC+00:00)

ADEOS Rocket - Pass Details

Date: 11 December 2019
Orbit: 858 x 1307 km, 98.7° (Epoch: 17 January)

Event Time Altitude Azimuth Distance (km) Brightness Sun altitude
Rises 05:35:39 0° 142° (SE) 4,082 7.1 -18.1°
Reaches altitude 10° 05:38:30 10° 136° (SE) 3,062 6.5 -17.6°
Maximum altitude 05:44:57 43° 68° (ENE) 1,472 4.3 -16.4°
Drops below altitude 10° 05:50:49 10° 360° (N) 2,783 5.2 -15.4°
Sets 05:53:18 0° 353° (N) 3,678 5.8 -15.0°
